Location: 22
(39.7117°N, 89.5929°W)
Time: 02:11:11
(UTC-06:00)

BlueWalker 3 - Visible Passes

Search period start: 06 December 2022 00:00
Search period end: 16 December 2022 00:00
Orbit: 501 x 518 km, 53.2° (Epoch: 05 December)

Date Brightness Start Highest point End Pass type
(mag) Time Alt. Az. Time Alt. Az. Time Alt. Az.
06 Dec 3.7 18:23:56 10° NNW 18:25:52 20° N 18:25:52 20° N visible
07 Dec 3.2 18:05:30 10° NNW 18:08:29 25° NNE 18:08:29 25° NNE visible
08 Dec 3.0 17:47:03 10° NNW 17:50:24 26° NNE 17:51:16 24° NE visible
08 Dec 4.9 19:25:29 10° WNW 19:26:07 14° WNW 19:26:07 14° WNW visible
09 Dec 3.0 17:28:37 10° NNW 17:32:01 28° NNE 17:34:14 17° ENE visible
09 Dec 4.0 19:07:05 10° WNW 19:09:06 27° WNW 19:09:06 27° WNW visible
10 Dec 2.9 17:10:10 10° NNW 17:13:38 29° NNE 17:17:03 10° E visible
10 Dec 3.0 18:48:41 10° WNW 18:52:21 42° SW 18:52:21 42° SW visible
11 Dec 3.2 18:30:18 10° WNW 18:33:57 39° SW 18:36:01 21° S visible
12 Dec 3.5 18:11:54 10° WNW 18:15:30 36° SW 18:19:04 10° SSE visible
13 Dec 3.7 17:53:30 10° WNW 17:57:03 34° SW 18:00:33 10° SSE visible
14 Dec 4.0 17:35:07 10° WNW 17:38:35 31° SW 17:42:02 10° SSE visible
15 Dec 4.2 17:16:43 10° WNW 17:20:08 29° SW 17:23:31 10° SSE visible
